Showing default

NIGERIASAT 1, 27941

Orbit data source: Space-Track

NIGERIASAT 1, 27941 is a payload satellite owned by NASRDA (NG) in SSO that was launched on Sat, 27 Sep 2003 UTC via a KOSMOS 11K65M launch vehicle from the Plesetsk Missile And Space Complex (PKMTR). Payload-class satellites include a variety of spacecraft equipped with specific instruments for various scientific and technological missions. These include communications satellites like Starlink; space stations such as the ISS; scientific satellites like the Hubble; Earth observation satellites from companies like Planet Labs, Umbra, and HawkEye 360; GPS; miniature CubeSats for education and research; and military/defense satellites.

Loading next visibility...
Identifier
27941, 2003-042C
Orbit
SSO
Country
Flag of NGNG / NIG
Related business
Manufacturer
SSTL
Mission
Non-operational Civil Imaging
Bus & Motor
SSTL-100, Unknown motor
Mass
80 kg wet, 80 kg dry
Launch date (UTC)
2003-09-27 (22 years ago)
Launch vehicle
KOSMOS 11K65M
Launch site
Plesetsk Missile And Space Complex (PKMTR)
Object type
Payload
Rocket body
Debris
Shape & HBR
Box + 1 Arm, 3.3 m
Radar Cross Section
0.540 m², Medium (>0.1 m² and < 1m²)

Expand to show TLE details & history
Last TLE update: 15 hours ago

TLE from 15 hours ago
0 NIGERIASAT 1
1 27941U 03042C   25287.94466427  .00002146  00000-0  22871-3 0  9994
2 27941  98.0056 111.6806 0043506  17.5781 342.6930 14.89301438187311
Epoch: 2025-10-14T22:40Z
TLE epoch observation values (Epoch: 2025-10-14T22:40:18.992Z)
Latitude
-0°
Longitude
107.87564°
Altitude
574.168 km
Speed
7.589 km/s
True Right ascension
07h 26m 43s
True Declination
0° 00' 00"
Sunlit
Object was in daylight at epoch
Visualization orbit readout
Latitude
Unknown
Longitude
Unknown
Altitude
Unknown
Speed
Unknown
Apparent Right ascension
Unknown
Apparent Declination
Unknown
Sunlit
N/A
Visualization observer readout
Local Sidereal Time
07:57:05
Azimuth
Unknown
Elevation
Unknown
Doppler factor
Unknown
Orbital elements
Apogee altitude
627.497 km
Perigee altitude
566.803 km
Semi-major axis
6,975.287 km
Eccentricity
0.00435
Inclination
98.0056°
RAAN
111.6806°
Arg. of periapsis
17.5781°
True anomaly
342.54391°
Mean anomaly
342.693°
Eccentric anomaly
342.61853°
Mean motion
3.72563 °/min
Orbital period
96.63 mins
BSTAR
0.00022871
Loading maneuver chart data...
Computing Atmospheric mass density...
Loading historical data...
Loading historical data...
Loading historical data...
Loading historical data...
Loading historical data...
Loading historical data...
Loading historical data...
Other satellites on launch #42 in the year 2003 (2003-09-27 UTC)

Documentation

Showing up to 5 results
|